Location: Clanezzo
(45.7500°N, 9.6000°E)
Time: 17:32:35
(UTC+00:00)

ESTCUBE 1 - Pass Details

Date: 09 July 2022
Orbit: 645 x 657 km, 97.9° (Epoch: 19 August)

Event Time Altitude Azimuth Distance (km) Brightness Sun altitude
Exits shadow 21:57:38 27° 208° (SSW) 1,235 ? -19.0°
Maximum altitude 21:59:34 43° 262° (W) 914 ? -19.1°
Drops below altitude 10° 22:03:52 10° 334° (NNW) 2,065 ? -19.4°
Sets 22:06:11 0° 341° (NNW) 2,983 ? -19.5°
